Location: Lansingburgh
(42.7845°N, 73.6696°W)
Time: 07:49:56
(UTC+00:00)

Tiangong - Visible Passes

Search period start: 11 October 2024 00:00
Search period end: 21 October 2024 00:00
Orbit: 372 x 377 km, 41.5° (Epoch: 10 October)

Date Brightness Start Highest point End Pass type
(mag) Time Alt. Az. Time Alt. Az. Time Alt. Az.
16 Oct 0.7 10:21:23 10° S 10:23:04 14° SSE 10:24:45 10° ESE visible
18 Oct 0.1 09:50:55 12° SSW 09:52:57 20° SSE 09:55:19 10° ESE visible
19 Oct 1.1 08:50:55 10° SE 08:50:55 10° SE 08:51:04 10° SE visible
19 Oct -1.2 10:22:57 10° SW 10:25:54 41° SSE 10:28:51 10° E visible
20 Oct -0.5 09:22:44 27° SSE 09:22:44 27° SSE 09:25:18 10° E visible
